EN

Hourly Weather Ladzin

Today, 24 July, Saturday

Time Temperature Precipitation Wind Pressure Humidity
00:00 +21°C° 0 mm 1 mps 742 mmHg 63%
01:00 +20°C° 0 mm 2 mps 742 mmHg 64%
02:00 +19°C° 0 mm 2 mps 742 mmHg 65%
03:00 +19°C° 0 mm 2 mps 742 mmHg 66%
04:00 +19°C° 0 mm 2 mps 742 mmHg 66%
05:00 +20°C° 0 mm 2 mps 742 mmHg 66%
06:00 +20°C° 0 mm 2 mps 742 mmHg 67%
07:00 +20°C° 0 mm 2 mps 742 mmHg 67%
08:00 +23°C° 0 mm 2 mps 742 mmHg 62%
09:00 +24°C° 0 mm 2 mps 742 mmHg 56%
10:00 +25°C° 0 mm 2 mps 742 mmHg 51%
11:00 +25°C° 0 mm 3 mps 742 mmHg 50%
12:00 +26°C° 0 mm 3 mps 742 mmHg 49%
13:00 +26°C° 0 mm 3 mps 741 mmHg 48%
14:00 +26°C° 0 mm 3 mps 741 mmHg 48%
15:00 +26°C° 0 mm 3 mps 741 mmHg 49%
16:00 +26°C° 0 mm 3 mps 741 mmHg 49%
17:00 +25°C° 0 mm 3 mps 741 mmHg 54%
18:00 +24°C° 0 mm 3 mps 741 mmHg 59%
19:00 +22°C° 0 mm 3 mps 741 mmHg 63%
20:00 +21°C° 0 mm 3 mps 741 mmHg 65%
21:00 +20°C° 0 mm 3 mps 741 mmHg 68%
22:00 +19°C° 0 mm 3 mps 741 mmHg 70%
23:00 +19°C° 0 mm 3 mps 741 mmHg 71%

Tomorrow, 25 July, Sunday

Time Temperature Precipitation Wind Pressure Humidity
00:00 +19°C° 0 mm 3 mps 740 mmHg 72%
01:00 +19°C° 0 mm 3 mps 740 mmHg 73%
02:00 +19°C° 0 mm 3 mps 740 mmHg 72%
03:00 +19°C° 0 mm 2 mps 740 mmHg 72%
04:00 +19°C° 0 mm 2 mps 740 mmHg 71%
05:00 +20°C° 0 mm 3 mps 740 mmHg 69%
06:00 +21°C° 0 mm 3 mps 740 mmHg 67%
07:00 +21°C° 0 mm 3 mps 740 mmHg 65%
08:00 +24°C° 0 mm 3 mps 740 mmHg 60%
09:00 +26°C° 0 mm 2 mps 740 mmHg 55%
10:00 +27°C° 0 mm 2 mps 740 mmHg 50%
11:00 +28°C° 0 mm 2 mps 740 mmHg 44%
12:00 +30°C° 0 mm 3 mps 740 mmHg 39%
13:00 +31°C° 0 mm 3 mps 740 mmHg 33%
14:00 +30°C° 0 mm 3 mps 740 mmHg 36%
15:00 +29°C° 0 mm 3 mps 740 mmHg 40%
16:00 +28°C° 0 mm 3 mps 740 mmHg 43%
17:00 +27°C° 0 mm 3 mps 739 mmHg 52%
18:00 +25°C° 0 mm 3 mps 739 mmHg 60%
19:00 +22°C° 0 mm 3 mps 739 mmHg 69%
20:00 +22°C° 0.1 mm 4 mps 739 mmHg 68%
21:00 +22°C° 0.1 mm 4 mps 739 mmHg 67%
22:00 +22°C° 0.1 mm 4 mps 739 mmHg 66%
23:00 +21°C° 0.1 mm 4 mps 738 mmHg 69%

Day after tomorrow, 26 July, Monday

Time Temperature Precipitation Wind Pressure Humidity
00:00 +21°C° 0.1 mm 4 mps 738 mmHg 71%
01:00 +20°C° 0.1 mm 4 mps 738 mmHg 74%
02:00 +20°C° 0.1 mm 3 mps 738 mmHg 77%
03:00 +19°C° 0.1 mm 3 mps 738 mmHg 80%
04:00 +19°C° 0.1 mm 3 mps 738 mmHg 84%
05:00 +20°C° 0 mm 3 mps 738 mmHg 81%
06:00 +20°C° 0 mm 3 mps 738 mmHg 79%
07:00 +21°C° 0 mm 3 mps 739 mmHg 77%
08:00 +22°C° 0 mm 3 mps 739 mmHg 74%
09:00 +24°C° 0 mm 3 mps 739 mmHg 71%
10:00 +25°C° 0 mm 3 mps 739 mmHg 68%
11:00 +26°C° 0.1 mm 3 mps 739 mmHg 63%
12:00 +27°C° 0.1 mm 3 mps 740 mmHg 59%
13:00 +28°C° 0.1 mm 3 mps 740 mmHg 54%
14:00 +29°C° 0 mm 3 mps 739 mmHg 51%
15:00 +30°C° 0 mm 3 mps 739 mmHg 48%
16:00 +30°C° 0 mm 3 mps 739 mmHg 45%
17:00 +29°C° 0 mm 3 mps 739 mmHg 51%
18:00 +27°C° 0 mm 3 mps 739 mmHg 57%
19:00 +26°C° 0 mm 2 mps 739 mmHg 63%
20:00 +25°C° 0 mm 2 mps 739 mmHg 66%
21:00 +24°C° 0 mm 1 mps 739 mmHg 69%
22:00 +23°C° 0 mm 1 mps 740 mmHg 73%
23:00 +22°C° 0.1 mm 1 mps 740 mmHg 75%

27 July, Tuesday

Time Temperature Precipitation Wind Pressure Humidity
00:00 +21°C° 0.1 mm 2 mps 740 mmHg 78%
01:00 +20°C° 0.1 mm 2 mps 740 mmHg 80%
02:00 +20°C° 0.1 mm 2 mps 740 mmHg 83%
03:00 +20°C° 0.1 mm 2 mps 740 mmHg 85%
04:00 +20°C° 0.1 mm 1 mps 740 mmHg 87%
05:00 +21°C° 0.3 mm 1 mps 740 mmHg 87%
06:00 +21°C° 0.3 mm 1 mps 740 mmHg 86%
07:00 +22°C° 0.3 mm 1 mps 740 mmHg 86%
08:00 +23°C° 0 mm 1 mps 741 mmHg 79%
09:00 +25°C° 0 mm 1 mps 741 mmHg 72%
10:00 +26°C° 0 mm 2 mps 741 mmHg 65%
11:00 +27°C° 0 mm 2 mps 741 mmHg 60%
12:00 +29°C° 0 mm 2 mps 741 mmHg 54%
13:00 +30°C° 0 mm 2 mps 740 mmHg 49%
14:00 +30°C° 0 mm 2 mps 740 mmHg 49%
15:00 +30°C° 0 mm 2 mps 740 mmHg 49%
16:00 +30°C° 0 mm 2 mps 740 mmHg 49%
17:00 +27°C° 2 mm 3 mps 739 mmHg 61%
18:00 +25°C° 2 mm 4 mps 739 mmHg 72%
19:00 +22°C° 2 mm 4 mps 738 mmHg 83%
20:00 +21°C° 4.8 mm 4 mps 739 mmHg 86%
21:00 +20°C° 4.8 mm 3 mps 739 mmHg 90%
22:00 +20°C° 4.8 mm 2 mps 739 mmHg 93%
23:00 +19°C° 0 mm 2 mps 739 mmHg 94%

28 July, Wednesday

Time Temperature Precipitation Wind Pressure Humidity
00:00 +19°C° 0 mm 2 mps 739 mmHg 95%
01:00 +19°C° 0 mm 2 mps 739 mmHg 96%
02:00 +18°C° 0 mm 2 mps 739 mmHg 96%
03:00 +18°C° 0 mm 2 mps 739 mmHg 96%
04:00 +18°C° 0 mm 2 mps 739 mmHg 96%
05:00 +19°C° 0 mm 3 mps 740 mmHg 92%
06:00 +19°C° 0 mm 3 mps 740 mmHg 89%
07:00 +20°C° 0 mm 3 mps 740 mmHg 86%
08:00 +21°C° 0.3 mm 4 mps 740 mmHg 80%
09:00 +22°C° 0.3 mm 5 mps 740 mmHg 74%
10:00 +23°C° 0.3 mm 5 mps 741 mmHg 69%
11:00 +25°C° 0.3 mm 5 mps 741 mmHg 67%
12:00 +25°C° 0.3 mm 5 mps 741 mmHg 66%
13:00 +25°C° 0.3 mm 5 mps 741 mmHg 65%
14:00 +25°C° 0 mm 5 mps 741 mmHg 61%
15:00 +26°C° 0 mm 5 mps 741 mmHg 56%
16:00 +27°C° 0 mm 5 mps 741 mmHg 52%
17:00 +26°C° 0 mm 4 mps 741 mmHg 57%
18:00 +24°C° 0 mm 3 mps 741 mmHg 62%
19:00 +22°C° 0 mm 3 mps 741 mmHg 66%
20:00 +21°C° 0 mm 3 mps 741 mmHg 67%
21:00 +21°C° 0 mm 3 mps 741 mmHg 67%
22:00 +20°C° 0 mm 2 mps 742 mmHg 67%
23:00 +20°C° 0 mm 2 mps 742 mmHg 69%

29 July, Thursday

Time Temperature Precipitation Wind Pressure Humidity
00:00 +19°C° 0 mm 2 mps 742 mmHg 70%
01:00 +19°C° 0 mm 2 mps 742 mmHg 71%
02:00 +18°C° 0 mm 2 mps 742 mmHg 72%
03:00 +18°C° 0 mm 2 mps 742 mmHg 73%
04:00 +18°C° 0 mm 2 mps 742 mmHg 74%
05:00 +19°C° 0 mm 2 mps 742 mmHg 70%
06:00 +20°C° 0 mm 2 mps 742 mmHg 67%
07:00 +23°C° 0 mm 2 mps 743 mmHg 64%
08:00 +24°C° 0 mm 2 mps 743 mmHg 59%
09:00 +26°C° 0 mm 2 mps 743 mmHg 53%
10:00 +27°C° 0 mm 2 mps 743 mmHg 48%
11:00 +28°C° 0 mm 2 mps 742 mmHg 45%
12:00 +29°C° 0 mm 2 mps 742 mmHg 43%
13:00 +30°C° 0 mm 2 mps 742 mmHg 41%
14:00 +29°C° 0 mm 2 mps 742 mmHg 42%
15:00 +29°C° 0 mm 1 mps 742 mmHg 43%
16:00 +29°C° 0 mm 1 mps 741 mmHg 44%
17:00 +28°C° 0 mm 1 mps 741 mmHg 49%
18:00 +27°C° 0 mm 2 mps 741 mmHg 54%
19:00 +26°C° 0 mm 2 mps 741 mmHg 58%
20:00 +25°C° 0 mm 2 mps 741 mmHg 58%
21:00 +25°C° 0 mm 2 mps 741 mmHg 58%
22:00 +25°C° 0 mm 2 mps 740 mmHg 58%
23:00 +24°C° 0 mm 3 mps 740 mmHg 60%
Show more